Location: Unspecified
(50.1700°N, 6.8600°E)
Time: 04:25:13
(UTC+00:00)

Cosmos 1743 Rocket - Pass Details

Date: 24 January 2019
Orbit: 604 x 634 km, 82.6° (Epoch: 17 April)

Event Time Altitude Azimuth Distance (km) Brightness Sun altitude
Rises 06:17:51 0° 349° (N) 2,933 6.7 -9.5°
Reaches altitude 10° 06:20:05 10° 350° (N) 2,024 5.9 -9.2°
Maximum altitude 06:24:36 89° 258° (WSW) 641 3.6 -8.5°
Drops below altitude 10° 06:29:04 10° 172° (S) 2,014 6.6 -7.8°
Sets 06:31:18 0° 172° (S) 2,918 7.4 -7.5°
